Tracking 19564 objects as of 19-Mar-2019
HD Live streaming from Space Station
objects crossing your sky now

FENGYUN 1C DEB

Track FENGYUN 1C DEB now!
10-day predictions


NORAD ID: 30356
Int'l Code: 1999-025ABT
Perigee: 832.9 km
Apogee: 916.4 km
Inclination: 98.8 °
Period: 102.3 minutes
Semi major axis: 7245 km
RCS: 0.038 m2 (small)
Launch date: May 10, 1999
Source: People's Republic of China (PRC)
Launch site: Taiyaun Space Center, China (TSC)

Note: This is SATELLITE DEBRIS
aabbcc
Your satellite tracking list
Your tracking list is empty




NASA's NSSDC Master Catalog

Two Line Element Set (TLE):
1 30356U 99025ABT 19077.76921478 +.00000470 +00000-0 +29898-3 0  9990
2 30356 098.8212 120.6287 0057592 054.5816 008.4616 14.07629399623592
Source of the keplerian elements: AFSPC